• In Germany
  • List of Countries
  • For 7 days
  • Water Temperature
  • Satellite Maps
  • Weather Map
  • Weather Widgets
  • user-avatar
    Login

    Hourly Weather Ganja

    Today, 25 September, Monday

    Time Temperature Precipitation Wind Pressure Humidity
    00:00 +21°C° 0 mm 2 mps 729 mmHg 74%
    01:00 +20°C° 0 mm 2 mps 729 mmHg 77%
    02:00 +21°C° 0 mm 1 mps 729 mmHg 80%
    03:00 +21°C° 0 mm 1 mps 729 mmHg 82%
    04:00 +20°C° 0 mm 1 mps 729 mmHg 84%
    05:00 +18°C° 0 mm 0 mps 729 mmHg 85%
    06:00 +18°C° 0 mm 0 mps 729 mmHg 87%
    07:00 +21°C° 0 mm 1 mps 729 mmHg 80%
    08:00 +22°C° 0 mm 1 mps 729 mmHg 73%
    09:00 +24°C° 0 mm 1 mps 729 mmHg 66%
    10:00 +25°C° 0 mm 2 mps 729 mmHg 61%
    11:00 +26°C° 0 mm 2 mps 729 mmHg 56%
    12:00 +27°C° 0 mm 2 mps 728 mmHg 51%
    13:00 +27°C° 0.3 mm 3 mps 728 mmHg 49%
    14:00 +28°C° 0.3 mm 3 mps 728 mmHg 46%
    15:00 +28°C° 0.3 mm 4 mps 728 mmHg 43%
    16:00 +27°C° 0.1 mm 4 mps 728 mmHg 46%
    17:00 +26°C° 0.1 mm 3 mps 728 mmHg 49%
    18:00 +25°C° 0.1 mm 3 mps 728 mmHg 52%
    19:00 +25°C° 0 mm 3 mps 728 mmHg 55%
    20:00 +24°C° 0 mm 3 mps 728 mmHg 58%
    21:00 +24°C° 0 mm 3 mps 729 mmHg 60%
    22:00 +22°C° 0 mm 4 mps 729 mmHg 61%
    23:00 +21°C° 0 mm 4 mps 729 mmHg 62%

    Tomorrow, 26 September, Tuesday

    Time Temperature Precipitation Wind Pressure Humidity
    00:00 +21°C° 0 mm 4 mps 728 mmHg 63%
    01:00 +20°C° 0 mm 3 mps 728 mmHg 64%
    02:00 +20°C° 0 mm 3 mps 728 mmHg 65%
    03:00 +20°C° 0 mm 3 mps 728 mmHg 66%
    04:00 +19°C° 0 mm 2 mps 728 mmHg 68%
    05:00 +19°C° 0 mm 2 mps 728 mmHg 69%
    06:00 +19°C° 0 mm 1 mps 728 mmHg 71%
    07:00 +19°C° 0 mm 2 mps 728 mmHg 67%
    08:00 +21°C° 0 mm 2 mps 728 mmHg 63%
    09:00 +22°C° 0 mm 3 mps 728 mmHg 58%
    10:00 +24°C° 0 mm 3 mps 728 mmHg 56%
    11:00 +25°C° 0 mm 3 mps 727 mmHg 53%
    12:00 +25°C° 0 mm 3 mps 727 mmHg 50%
    13:00 +26°C° 0 mm 4 mps 727 mmHg 50%
    14:00 +26°C° 0 mm 4 mps 726 mmHg 50%
    15:00 +26°C° 0 mm 4 mps 726 mmHg 49%
    16:00 +25°C° 0 mm 4 mps 726 mmHg 54%
    17:00 +23°C° 0 mm 5 mps 726 mmHg 58%
    18:00 +22°C° 0 mm 5 mps 726 mmHg 62%
    19:00 +22°C° 0 mm 5 mps 727 mmHg 65%
    20:00 +21°C° 0 mm 5 mps 727 mmHg 68%
    21:00 +20°C° 0 mm 5 mps 727 mmHg 71%
    22:00 +20°C° 0 mm 5 mps 727 mmHg 72%
    23:00 +19°C° 0 mm 5 mps 727 mmHg 74%

    Day after tomorrow, 27 September, Wednesday

    Time Temperature Precipitation Wind Pressure Humidity
    00:00 +19°C° 0 mm 5 mps 727 mmHg 75%
    01:00 +19°C° 0 mm 4 mps 727 mmHg 75%
    02:00 +18°C° 0 mm 4 mps 727 mmHg 75%
    03:00 +18°C° 0 mm 3 mps 726 mmHg 76%
    04:00 +18°C° 0 mm 3 mps 726 mmHg 77%
    05:00 +18°C° 0 mm 3 mps 726 mmHg 77%
    06:00 +18°C° 0 mm 2 mps 726 mmHg 78%
    07:00 +18°C° 0.1 mm 3 mps 726 mmHg 75%
    08:00 +19°C° 0.1 mm 3 mps 726 mmHg 72%
    09:00 +20°C° 0.1 mm 3 mps 726 mmHg 69%
    10:00 +20°C° 0.1 mm 3 mps 726 mmHg 70%
    11:00 +20°C° 0.1 mm 3 mps 726 mmHg 70%
    12:00 +20°C° 0.1 mm 3 mps 726 mmHg 71%
    13:00 +20°C° 0 mm 3 mps 725 mmHg 72%
    14:00 +19°C° 0 mm 3 mps 725 mmHg 74%
    15:00 +19°C° 0 mm 3 mps 725 mmHg 75%
    16:00 +19°C° 0.1 mm 3 mps 725 mmHg 77%
    17:00 +18°C° 0.1 mm 2 mps 725 mmHg 79%
    18:00 +18°C° 0.1 mm 2 mps 726 mmHg 81%
    19:00 +18°C° 0.5 mm 2 mps 726 mmHg 84%
    20:00 +17°C° 0.5 mm 2 mps 726 mmHg 86%
    21:00 +17°C° 0.5 mm 2 mps 726 mmHg 89%
    22:00 +17°C° 0.7 mm 2 mps 726 mmHg 90%
    23:00 +17°C° 0.7 mm 2 mps 726 mmHg 91%

    28 September, Thursday

    Time Temperature Precipitation Wind Pressure Humidity
    00:00 +17°C° 0.7 mm 2 mps 726 mmHg 91%
    01:00 +16°C° 0.4 mm 2 mps 726 mmHg 91%
    02:00 +16°C° 0.4 mm 2 mps 726 mmHg 91%
    03:00 +16°C° 0.4 mm 2 mps 726 mmHg 90%
    04:00 +16°C° 0.2 mm 2 mps 727 mmHg 90%
    05:00 +16°C° 0.2 mm 2 mps 727 mmHg 90%
    06:00 +16°C° 0.2 mm 3 mps 727 mmHg 90%
    07:00 +16°C° 0.4 mm 3 mps 727 mmHg 88%
    08:00 +16°C° 0.4 mm 3 mps 728 mmHg 86%
    09:00 +15°C° 0.4 mm 4 mps 728 mmHg 84%
    10:00 +15°C° 0.5 mm 4 mps 728 mmHg 84%
    11:00 +15°C° 0.5 mm 4 mps 728 mmHg 83%
    12:00 +15°C° 0.5 mm 5 mps 728 mmHg 83%
    13:00 +15°C° 0.2 mm 5 mps 728 mmHg 81%
    14:00 +15°C° 0.2 mm 5 mps 728 mmHg 80%
    15:00 +15°C° 0.2 mm 5 mps 728 mmHg 79%
    16:00 +15°C° 0.1 mm 4 mps 728 mmHg 79%
    17:00 +15°C° 0.1 mm 4 mps 729 mmHg 79%
    18:00 +14°C° 0.1 mm 4 mps 729 mmHg 79%
    19:00 +14°C° 0 mm 4 mps 729 mmHg 79%
    20:00 +14°C° 0 mm 4 mps 730 mmHg 80%
    21:00 +14°C° 0 mm 4 mps 730 mmHg 81%
    22:00 +13°C° 0.3 mm 3 mps 730 mmHg 82%
    23:00 +13°C° 0.3 mm 3 mps 730 mmHg 84%

    29 September, Friday

    Time Temperature Precipitation Wind Pressure Humidity
    00:00 +13°C° 0.3 mm 3 mps 730 mmHg 85%
    01:00 +13°C° 0.2 mm 3 mps 730 mmHg 86%
    02:00 +13°C° 0.2 mm 3 mps 730 mmHg 88%
    03:00 +14°C° 0.2 mm 2 mps 730 mmHg 89%
    04:00 +14°C° 0.1 mm 2 mps 730 mmHg 90%
    05:00 +14°C° 0.1 mm 2 mps 730 mmHg 90%
    06:00 +14°C° 0.1 mm 2 mps 730 mmHg 91%
    07:00 +13°C° 0.1 mm 3 mps 730 mmHg 88%
    08:00 +13°C° 0.1 mm 3 mps 730 mmHg 86%
    09:00 +14°C° 0.1 mm 3 mps 730 mmHg 83%
    10:00 +14°C° 0 mm 4 mps 729 mmHg 81%
    11:00 +15°C° 0 mm 4 mps 729 mmHg 78%
    12:00 +15°C° 0 mm 4 mps 729 mmHg 76%
    13:00 +15°C° 0 mm 4 mps 729 mmHg 75%
    14:00 +17°C° 0 mm 4 mps 728 mmHg 74%
    15:00 +17°C° 0 mm 3 mps 728 mmHg 74%
    16:00 +16°C° 0 mm 3 mps 728 mmHg 76%
    17:00 +16°C° 0 mm 3 mps 728 mmHg 78%
    18:00 +16°C° 0 mm 3 mps 728 mmHg 81%
    19:00 +14°C° 0 mm 3 mps 728 mmHg 82%
    20:00 +14°C° 0 mm 3 mps 729 mmHg 83%
    21:00 +15°C° 0 mm 2 mps 729 mmHg 84%
    22:00 +15°C° 0 mm 2 mps 728 mmHg 84%
    23:00 +15°C° 0 mm 2 mps 728 mmHg 84%

    30 September, Saturday

    Time Temperature Precipitation Wind Pressure Humidity
    00:00 +15°C° 0 mm 2 mps 728 mmHg 84%
    01:00 +15°C° 0 mm 2 mps 728 mmHg 83%
    02:00 +15°C° 0 mm 2 mps 727 mmHg 83%
    03:00 +15°C° 0 mm 1 mps 727 mmHg 82%
    04:00 +15°C° 0 mm 1 mps 727 mmHg 82%
    05:00 +15°C° 0 mm 1 mps 727 mmHg 82%
    06:00 +14°C° 0 mm 1 mps 727 mmHg 82%
    07:00 +15°C° 0.1 mm 1 mps 726 mmHg 79%
    08:00 +16°C° 0.1 mm 1 mps 726 mmHg 75%
    09:00 +18°C° 0.1 mm 1 mps 726 mmHg 72%
    10:00 +19°C° 0 mm 1 mps 725 mmHg 69%
    11:00 +19°C° 0 mm 2 mps 725 mmHg 66%
    12:00 +20°C° 0 mm 2 mps 724 mmHg 62%
    13:00 +19°C° 0.1 mm 2 mps 724 mmHg 63%
    14:00 +19°C° 0.1 mm 3 mps 724 mmHg 64%
    15:00 +19°C° 0.1 mm 3 mps 724 mmHg 65%
    16:00 +19°C° 0.2 mm 2 mps 724 mmHg 68%
    17:00 +18°C° 0.2 mm 2 mps 724 mmHg 70%
    18:00 +18°C° 0.2 mm 2 mps 724 mmHg 73%
    19:00 +18°C° 0.1 mm 2 mps 724 mmHg 74%
    20:00 +17°C° 0.1 mm 2 mps 724 mmHg 75%
    21:00 +17°C° 0.1 mm 2 mps 724 mmHg 77%
    22:00 +17°C° 0 mm 2 mps 724 mmHg 77%
    23:00 +16°C° 0 mm 2 mps 724 mmHg 77%
    Show more